| time (UTC) | temp F | wind direction | speed knots | gust knots | rain 1hr in | rain 24hr in | rain mn in | humidity % | barometer mb |
| 20260504100447 | 49 | 223 | 0.0 | 0.0 | 0.00 | 0.00 | 0.00 | 77 | 1014.3 |
| 20260504100430 | 49 | 223 | 0.0 | 0.0 | 0.00 | 0.00 | 0.00 | 77 | 1014.3 |
| 20260504081924 | 49 | 223 | 0.0 | 0.0 | 0.00 | 0.00 | 0.00 | 76 | 1014.7 |
| 20260504081422 | 49 | 223 | 0.0 | 0.0 | 0.00 | 0.00 | 0.00 | 74 | 1014.7 |
| 20260504081143 | 49 | 223 | 0.0 | 0.0 | 0.00 | 0.00 | 0.00 | 75 | 1014.7 |
| 20260504080423 | 49 | 223 | 0.0 | 0.0 | 0.00 | 0.00 | 0.00 | 75 | 1014.7 |
| 20260504080148 | 49 | 223 | 0.0 | 0.0 | 0.00 | 0.00 | 0.00 | 72 | 1014.8 |
| 20260504060232 | 46 | 223 | 0.0 | 0.0 | 0.00 | 0.00 | 0.00 | 77 | 1015.1 |
| 20260504045556 | 46 | 223 | 0.0 | 0.0 | 0.00 | 0.00 | 0.00 | 66 | 1015.0 |
| 20260504045051 | 46 | 223 | 0.0 | 0.0 | 0.00 | 0.00 | 0.00 | 67 | 1015.0 |
| 20260504044758 | 46 | 223 | 0.0 | 0.0 | 0.00 | 0.00 | 0.00 | 66 | 1015.0 |
| 20260504044030 | 46 | 223 | 0.0 | 0.0 | 0.00 | 0.00 | 0.00 | 68 | 1014.9 |
| 20260504043744 | 46 | 223 | 0.0 | 0.0 | 0.00 | 0.00 | 0.00 | 67 | 1015.0 |
| 20260504043011 | 46 | 223 | 0.0 | 0.0 | 0.00 | 0.00 | 0.00 | 67 | 1015.0 |
| 20260504042503 | 46 | 223 | 0.0 | 0.0 | 0.00 | 0.00 | 0.00 | 67 | 1015.0 |
| 20260504041959 | 46 | 223 | 0.0 | 0.0 | 0.00 | 0.00 | 0.00 | 66 | 1015.0 |
| 20260504041445 | 46 | 223 | 0.0 | 0.9 | 0.00 | 0.00 | 0.00 | 67 | 1015.0 |
| 20260504040933 | 46 | 223 | 0.0 | 0.9 | 0.00 | 0.00 | 0.00 | 68 | 1015.0 |
| 20260504040432 | 45 | 223 | 0.0 | 0.9 | 0.00 | 0.00 | 0.00 | 69 | 1015.0 |
| 20260504035918 | 45 | 223 | 0.0 | 0.0 | 0.00 | 0.00 | 0.00 | 70 | 1015.0 |
| 20260504035416 | 45 | 223 | 0.0 | 0.0 | 0.00 | 0.00 | 0.00 | 72 | 1015.0 |
| 20260504034916 | 45 | 223 | 0.0 | 0.0 | 0.00 | 0.00 | 0.00 | 73 | 1015.0 |
| 20260504034417 | 45 | 223 | 0.0 | 0.0 | 0.00 | 0.00 | 0.00 | 71 | 1014.9 |
| 20260504033916 | 45 | 223 | 0.0 | 0.0 | 0.00 | 0.00 | 0.00 | 71 | 1014.9 |
| 20260504033413 | 45 | 223 | 0.0 | 0.0 | 0.00 | 0.00 | 0.00 | 72 | 1014.8 |
| 20260504032911 | 46 | 223 | 0.0 | 0.0 | 0.00 | 0.00 | 0.00 | 73 | 1014.8 |
| 20260504032409 | 46 | 223 | 0.0 | 0.0 | 0.00 | 0.00 | 0.00 | 73 | 1014.7 |
| 20260504031906 | 46 | 223 | 0.0 | 0.0 | 0.00 | 0.00 | 0.00 | 73 | 1014.7 |
| 20260504031405 | 46 | 223 | 0.0 | 0.0 | 0.00 | 0.00 | 0.00 | 73 | 1014.6 |
| 20260504030903 | 46 | 223 | 0.0 | 0.0 | 0.00 | 0.00 | 0.00 | 72 | 1014.6 |
| 20260504030401 | 46 | 223 | 0.0 | 0.0 | 0.00 | 0.00 | 0.00 | 71 | 1014.6 |
| 20260504025901 | 47 | 223 | 0.0 | 0.0 | 0.00 | 0.00 | 0.00 | 70 | 1014.5 |
| 20260504025400 | 47 | 223 | 0.0 | 0.0 | 0.00 | 0.00 | 0.00 | 70 | 1014.4 |
| 20260504024858 | 47 | 223 | 0.0 | 0.0 | 0.00 | 0.00 | 0.00 | 70 | 1014.4 |
| 20260504024357 | 47 | 223 | 0.0 | 0.0 | 0.00 | 0.00 | 0.00 | 68 | 1014.5 |
| 20260504024115 | 47 | 223 | 0.0 | 0.0 | 0.00 | 0.00 | 0.00 | 68 | 1014.5 |
| 20260504023357 | 48 | 223 | 0.0 | 0.0 | 0.00 | 0.00 | 0.00 | 68 | 1014.5 |
| 20260504022857 | 48 | 223 | 0.0 | 0.0 | 0.00 | 0.00 | 0.00 | 67 | 1014.5 |
| 20260504022356 | 48 | 223 | 0.0 | 0.0 | 0.00 | 0.00 | 0.00 | 67 | 1014.5 |
| 20260504021854 | 48 | 223 | 0.0 | 0.0 | 0.00 | 0.00 | 0.00 | 67 | 1014.5 |
| 20260504021353 | 49 | 223 | 0.0 | 0.0 | 0.00 | 0.00 | 0.00 | 66 | 1014.5 |
| 20260504020853 | 49 | 223 | 0.0 | 0.0 | 0.00 | 0.00 | 0.00 | 65 | 1014.5 |
| 20260504020618 | 49 | 223 | 0.0 | 0.0 | 0.00 | 0.00 | 0.00 | 65 | 1014.5 |
| 20260504020117 | 49 | 223 | 0.0 | 0.0 | 0.00 | 0.00 | 0.00 | 63 | 1014.4 |
| 20260504015614 | 49 | 223 | 0.0 | 0.0 | 0.00 | 0.00 | 0.00 | 63 | 1014.3 |
| 20260504015108 | 50 | 223 | 0.0 | 0.0 | 0.00 | 0.00 | 0.00 | 64 | 1014.3 |
| 20260504014351 | 50 | 223 | 0.0 | 0.0 | 0.00 | 0.00 | 0.00 | 61 | 1014.3 |
| 20260504013846 | 50 | 223 | 0.0 | 0.0 | 0.00 | 0.00 | 0.00 | 61 | 1014.3 |
| 20260504013819 | 51 | 223 | 0.0 | 0.0 | 0.00 | 0.00 | 0.00 | 58 | 1014.3 |
| 20260504013727 | 51 | 223 | 0.0 | 0.0 | 0.00 | 0.00 | 0.00 | 61 | 1014.3 |
| 20260504012328 | 51 | 223 | 0.0 | 0.0 | 0.00 | 0.00 | 0.00 | 57 | 1014.3 |
| 20260504011828 | 51 | 223 | 0.0 | 0.0 | 0.00 | 0.00 | 0.00 | 57 | 1014.2 |
| 20260504011329 | 51 | 223 | 0.0 | 0.0 | 0.00 | 0.00 | 0.00 | 60 | 1014.2 |
| 20260504010828 | 51 | 223 | 0.0 | 0.0 | 0.00 | 0.00 | 0.00 | 59 | 1014.1 |
| 20260504010329 | 52 | 223 | 0.0 | 0.0 | 0.00 | 0.00 | 0.00 | 57 | 1014.2 |
| 20260504010056 | 52 | 223 | 0.0 | 0.0 | 0.00 | 0.00 | 0.00 | 55 | 1014.2 |
| 20260504005329 | 53 | 223 | 0.0 | 0.0 | 0.00 | 0.00 | 0.00 | 54 | 1014.1 |
| 20260504004828 | 53 | 223 | 0.0 | 0.0 | 0.00 | 0.00 | 0.00 | 52 | 1014.0 |
| 20260504004603 | 53 | 223 | 0.0 | 0.0 | 0.00 | 0.00 | 0.00 | 52 | 1013.9 |
| 20260504003817 | 54 | 223 | 0.0 | 0.0 | 0.00 | 0.00 | 0.00 | 52 | 1013.9 |
| 20260504003304 | 54 | 223 | 0.0 | 0.0 | 0.00 | 0.00 | 0.00 | 54 | 1013.8 |
| 20260504002802 | 54 | 223 | 0.0 | 0.0 | 0.00 | 0.00 | 0.00 | 52 | 1013.8 |
| 20260504002304 | 55 | 223 | 0.0 | 0.0 | 0.00 | 0.00 | 0.00 | 52 | 1013.8 |
| 20260504001804 | 55 | 223 | 0.0 | 0.0 | 0.00 | 0.00 | 0.00 | 47 | 1013.7 |
| 20260504001525 | 56 | 223 | 0.0 | 0.0 | 0.00 | 0.00 | 0.00 | 47 | 1013.7 |
| 20260504000801 | 56 | 223 | 0.0 | 0.0 | 0.00 | 0.00 | 0.00 | 46 | 1013.7 |
| 20260504000301 | 57 | 223 | 0.0 | 0.0 | 0.00 | 0.00 | 0.00 | 44 | 1013.6 |
| 20260503235803 | 58 | 223 | 0.0 | 0.0 | 0.00 | 0.00 | 0.00 | 44 | 1013.6 |
| 20260503235524 | 58 | 223 | 0.0 | 0.9 | 0.00 | 0.00 | 0.00 | 44 | 1013.6 |
| 20260503234801 | 59 | 223 | 0.0 | 0.9 | 0.00 | 0.00 | 0.00 | 42 | 1013.5 |
| 20260503234303 | 59 | 64 | 0.0 | 0.0 | 0.00 | 0.00 | 0.00 | 41 | 1013.6 |
| 20260503234023 | 60 | 72 | 0.0 | 0.9 | 0.00 | 0.00 | 0.00 | 42 | 1013.5 |
| 20260503233532 | 60 | 72 | 0.0 | 0.9 | 0.00 | 0.00 | 0.00 | 41 | 1013.5 |
| 20260503232804 | 60 | 58 | 0.0 | 0.9 | 0.00 | 0.00 | 0.00 | 39 | 1013.4 |
| 20260503232305 | 60 | 58 | 0.0 | 1.7 | 0.00 | 0.00 | 0.00 | 35 | 1013.3 |
| 20260503231759 | 61 | 59 | 0.9 | 2.6 | 0.00 | 0.00 | 0.00 | 34 | 1013.3 |
| 20260503231246 | 61 | 297 | 0.9 | 2.6 | 0.00 | 0.00 | 0.00 | 33 | 1013.2 |
| 20260503230950 | 61 | 312 | 0.9 | 3.5 | 0.00 | 0.00 | 0.00 | 33 | 1013.3 |
| 20260503230217 | 61 | 342 | 0.9 | 3.5 | 0.00 | 0.00 | 0.00 | 32 | 1013.2 |
| 20260503225704 | 61 | 290 | 0.0 | 2.6 | 0.00 | 0.00 | 0.00 | 33 | 1013.2 |
| 20260503225151 | 61 | 355 | 0.0 | 2.6 | 0.00 | 0.00 | 0.00 | 33 | 1013.2 |
| 20260503224644 | 61 | 287 | 0.0 | 1.7 | 0.00 | 0.00 | 0.00 | 33 | 1013.2 |
| 20260503224138 | 61 | 287 | 0.0 | 1.7 | 0.00 | 0.00 | 0.00 | 34 | 1013.3 |
| 20260503223625 | 61 | 287 | 0.9 | 3.5 | 0.00 | 0.00 | 0.00 | 33 | 1013.3 |
| 20260503223114 | 61 | 275 | 0.9 | 4.3 | 0.00 | 0.00 | 0.00 | 33 | 1013.3 |
| 20260503222611 | 62 | 222 | 0.9 | 4.3 | 0.00 | 0.00 | 0.00 | 32 | 1013.3 |
| 20260503222057 | 62 | 313 | 0.9 | 3.5 | 0.00 | 0.00 | 0.00 | 33 | 1013.3 |
| 20260503221816 | 62 | 331 | 0.9 | 3.5 | 0.00 | 0.00 | 0.00 | 33 | 1013.3 |
| 20260503221307 | 62 | 286 | 0.9 | 3.5 | 0.00 | 0.00 | 0.00 | 31 | 1013.3 |
| 20260503220532 | 62 | 277 | 0.9 | 3.5 | 0.00 | 0.00 | 0.00 | 32 | 1013.3 |
| 20260503220028 | 62 | 53 | 0.9 | 4.3 | 0.00 | 0.00 | 0.00 | 33 | 1013.2 |
| 20260503215742 | 62 | 294 | 0.9 | 4.3 | 0.00 | 0.00 | 0.00 | 31 | 1013.3 |
| 20260503215007 | 62 | 274 | 0.9 | 4.3 | 0.00 | 0.00 | 0.00 | 33 | 1013.3 |
| 20260503214455 | 62 | 292 | 0.9 | 4.3 | 0.00 | 0.00 | 0.00 | 33 | 1013.4 |
| 20260503213950 | 62 | 299 | 0.9 | 3.5 | 0.00 | 0.00 | 0.00 | 31 | 1013.4 |
| 20260503213444 | 62 | 315 | 0.9 | 4.3 | 0.00 | 0.00 | 0.00 | 34 | 1013.4 |
| 20260503212938 | 62 | 5 | 1.7 | 5.2 | 0.00 | 0.00 | 0.00 | 31 | 1013.3 |
| 20260503212431 | 62 | 328 | 1.7 | 5.2 | 0.00 | 0.00 | 0.00 | 31 | 1013.4 |
| 20260503211918 | 62 | 292 | 0.9 | 5.2 | 0.00 | 0.00 | 0.00 | 31 | 1013.2 |
| 20260503211412 | 62 | 211 | 0.9 | 4.3 | 0.00 | 0.00 | 0.00 | 33 | 1013.2 |
| 20260503210905 | 62 | 27 | 0.9 | 4.3 | 0.00 | 0.00 | 0.00 | 33 | 1013.2 |
| 20260503210611 | 62 | 272 | 0.9 | 3.5 | 0.00 | 0.00 | 0.00 | 32 | 1013.3 |
| 20260503205846 | 62 | 332 | 0.9 | 5.2 | 0.00 | 0.00 | 0.00 | 32 | 1013.3 |
| 20260503205340 | 62 | 277 | 0.9 | 5.2 | 0.00 | 0.00 | 0.00 | 30 | 1013.5 |
| 20260503204825 | 62 | 355 | 0.9 | 6.1 | 0.00 | 0.00 | 0.00 | 32 | 1013.4 |
| 20260503204320 | 63 | 292 | 1.7 | 6.1 | 0.00 | 0.00 | 0.00 | 32 | 1013.4 |
| 20260503204246 | 62 | 301 | 1.7 | 7.8 | 0.00 | 0.00 | 0.00 | 31 | 1013.4 |
| 20260503203520 | 62 | 265 | 1.7 | 7.8 | 0.00 | 0.00 | 0.00 | 31 | 1013.5 |
| 20260503202745 | 62 | 192 | 1.7 | 5.2 | 0.00 | 0.00 | 0.00 | 30 | 1013.5 |
| 20260503202239 | 62 | 0 | 0.9 | 5.2 | 0.00 | 0.00 | 0.00 | 34 | 1013.6 |
| 20260503201735 | 62 | 32 | 1.7 | 4.3 | 0.00 | 0.00 | 0.00 | 32 | 1013.5 |
| 20260503201227 | 62 | 236 | 1.7 | 5.2 | 0.00 | 0.00 | 0.00 | 32 | 1013.7 |
| 20260503200722 | 62 | 254 | 1.7 | 7.8 | 0.00 | 0.00 | 0.00 | 33 | 1013.8 |
| 20260503200209 | 62 | 317 | 1.7 | 7.8 | 0.00 | 0.00 | 0.00 | 34 | 1013.9 |
| 20260503195701 | 62 | 158 | 1.7 | 7.0 | 0.00 | 0.00 | 0.00 | 33 | 1013.9 |
| 20260503195157 | 62 | 27 | 0.9 | 5.2 | 0.00 | 0.00 | 0.00 | 35 | 1013.9 |
| 20260503194643 | 61 | 320 | 0.9 | 4.3 | 0.00 | 0.00 | 0.00 | 37 | 1013.9 |
| 20260503194355 | 61 | 305 | 1.7 | 6.1 | 0.00 | 0.00 | 0.00 | 36 | 1014.1 |
| 20260503193630 | 61 | 252 | 1.7 | 7.0 | 0.00 | 0.00 | 0.00 | 38 | 1014.3 |
| 20260503193115 | 61 | 248 | 0.9 | 7.0 | 0.00 | 0.00 | 0.00 | 36 | 1014.3 |
| 20260503192610 | 60 | 321 | 0.9 | 3.5 | 0.00 | 0.00 | 0.00 | 37 | 1014.4 |
| 20260503192103 | 60 | 316 | 1.7 | 4.3 | 0.00 | 0.00 | 0.00 | 35 | 1014.3 |
| 20260503191550 | 60 | 263 | 1.7 | 4.3 | 0.00 | 0.00 | 0.00 | 37 | 1014.4 |
| 20260503191045 | 59 | 287 | 1.7 | 5.2 | 0.00 | 0.00 | 0.00 | 38 | 1014.5 |
| 20260503190759 | 59 | 340 | 1.7 | 5.2 | 0.00 | 0.00 | 0.00 | 37 | 1014.6 |
| 20260503190024 | 60 | 253 | 1.7 | 7.0 | 0.00 | 0.00 | 0.00 | 38 | 1014.6 |
| 20260503185518 | 59 | 348 | 2.6 | 7.0 | 0.00 | 0.00 | 0.00 | 37 | 1014.6 |
| 20260503185012 | 59 | 355 | 1.7 | 7.8 | 0.00 | 0.00 | 0.00 | 38 | 1014.6 |
| 20260503184458 | 59 | 295 | 1.7 | 7.8 | 0.00 | 0.00 | 0.00 | 37 | 1014.8 |
| 20260503183947 | 59 | 307 | 0.9 | 3.5 | 0.00 | 0.00 | 0.00 | 41 | 1014.7 |
| 20260503183441 | 58 | 315 | 0.9 | 4.3 | 0.00 | 0.00 | 0.00 | 42 | 1014.9 |
| 20260503182936 | 58 | 285 | 1.7 | 4.3 | 0.00 | 0.00 | 0.00 | 42 | 1015.1 |
| 20260503182429 | 57 | 303 | 1.7 | 10.4 | 0.00 | 0.00 | 0.00 | 39 | 1014.9 |
| 20260503181923 | 57 | 339 | 1.7 | 10.4 | 0.00 | 0.00 | 0.00 | 42 | 1015.0 |
| 20260503181420 | 57 | 30 | 0.9 | 6.1 | 0.00 | 0.00 | 0.00 | 41 | 1015.0 |
| 20260503180920 | 57 | 347 | 0.9 | 5.2 | 0.00 | 0.00 | 0.00 | 41 | 1014.9 |
| 20260503180418 | 56 | 329 | 1.7 | 5.2 | 0.00 | 0.00 | 0.00 | 41 | 1015.1 |
| 20260503175915 | 56 | 198 | 1.7 | 5.2 | 0.00 | 0.00 | 0.00 | 39 | 1015.1 |
| 20260503175413 | 56 | 208 | 1.7 | 4.3 | 0.00 | 0.00 | 0.00 | 40 | 1015.2 |
| 20260503174912 | 56 | 207 | 0.9 | 4.3 | 0.00 | 0.00 | 0.00 | 43 | 1015.2 |
| 20260503174411 | 55 | 52 | 0.9 | 3.5 | 0.00 | 0.00 | 0.00 | 42 | 1015.2 |
| 20260503174134 | 55 | 294 | 1.7 | 5.2 | 0.00 | 0.00 | 0.00 | 43 | 1015.3 |
| 20260503173410 | 55 | 224 | 1.7 | 5.2 | 0.00 | 0.00 | 0.00 | 41 | 1015.4 |
| 20260503172907 | 55 | 296 | 0.9 | 4.3 | 0.00 | 0.00 | 0.00 | 45 | 1015.4 |
| 20260503172407 | 55 | 307 | 1.7 | 5.2 | 0.00 | 0.00 | 0.00 | 41 | 1015.3 |
| 20260503172132 | 55 | 219 | 1.7 | 5.2 | 0.00 | 0.00 | 0.00 | 43 | 1015.4 |
| 20260503171406 | 54 | 241 | 1.7 | 5.2 | 0.00 | 0.00 | 0.00 | 44 | 1015.4 |
| 20260503170906 | 54 | 296 | 1.7 | 5.2 | 0.00 | 0.00 | 0.00 | 44 | 1015.4 |
| 20260503170403 | 54 | 355 | 1.7 | 5.2 | 0.00 | 0.00 | 0.00 | 44 | 1015.6 |
| 20260503150839 | 51 | 267 | 1.7 | 7.8 | 0.00 | 0.00 | 0.00 | 45 | 1016.2 |
| 20260503150338 | 50 | 193 | 1.7 | 5.2 | 0.00 | 0.00 | 0.00 | 45 | 1016.1 |
| 20260503140304 | 48 | 267 | 1.7 | 6.1 | 0.00 | 0.00 | 0.00 | 48 | 1016.3 |
| 20260503131135 | 46 | 285 | 1.7 | 5.2 | 0.00 | 0.00 | 0.00 | 56 | 1016.4 |
| 20260503130623 | 46 | 132 | 1.7 | 5.2 | 0.00 | 0.00 | 0.00 | 56 | 1016.3 |
| 20260503130115 | 45 | 219 | 1.7 | 7.0 | 0.00 | 0.00 | 0.00 | 58 | 1016.3 |
| 20260503110317 | 41 | 291 | 0.9 | 2.6 | 0.00 | 0.00 | 0.00 | 73 | 1015.4 |